Mountain Home, ID

5:45 PM MDT on April 21, 2018 (GMT -0600)
Mountain Home Air Force Base

Weather History for KMUO - March, 2013

Change the Weather History Date:

Monday, March 18, 2013

  Actual Average Record
Temperature  
Mean Temperature 38 °F 43 °F  
Max Temperature 52 °F 55 °F 74 °F (1910)
Min Temperature 23 °F 31 °F 6 °F (1965)
Degree Days  
Heating Degree Days 27 22  
Month to date heating degree days 372 434  
Cooling Degree Days 0 0  
Month to date cooling degree days 0 0  
Moisture  
Dew Point 16 °F    
Average Humidity 42    
Maximum Humidity 64    
Minimum Humidity 26    
Precipitation  
Precipitation 0.00 in 0.04 in 0.39 in (1931)
Month to date precipitation 0.08 0.67  
Sea Level Pressure  
Sea Level Pressure 30.15 in    
Wind  
Wind Speed 7 mph (NW)    
Max Wind Speed 16 mph    
Max Gust Speed 29 mph    
Visibility 10 miles    
Events      
T = Trace of Precipitation, MM = Missing Value Source: NWS Daily Summary

Daily Weather History Graph

Daily Weather History Graph

Search for Another Location

Airport or City:

Astronomy

Mar. 18, 2013 Rise Set
Actual Time 7:49 AM MDT 7:53 PM MDT
Civil Twilight 7:21 AM MDT 8:22 PM MDT
Nautical Twilight 6:48 AM MDT 8:55 PM MDT
Astronomical Twilight 6:14 AM MDT 9:29 PM MDT
Moon 11:44 AM MDT (3/18) 2:05 AM MDT (3/18)
Length of Visible Light 13h 00m
Length of Day
12h 04m
Waxing Crescent, 41% of the Moon is Illuminated
Mar 18
Waxing Crescent
Mar 19
First Quarter
Mar 27
Full
Apr 2
Last Quarter
Apr 10
New

Hourly Weather History & Observations

Time (MDT) Temp. Windchill Dew Point Humidity Pressure Visibility Wind Dir Wind Speed Gust Speed Precip Events Conditions
4:59 AM 23.0 °F 13.9 °F 10.4 °F 59% 30.14 in 10.0 mi West 8.1 mph - N/A   Clear
5:59 AM 24.8 °F - 12.2 °F 59% 30.15 in 10.0 mi NW 1.2 mph - N/A   Scattered Clouds
6:58 AM 26.6 °F 20.0 °F 12.2 °F 55% 30.16 in 10.0 mi NW 5.8 mph - N/A   Partly Cloudy
7:58 AM 23.0 °F 18.4 °F 12.2 °F 63% 30.17 in 10.0 mi NNW 3.5 mph - N/A   Partly Cloudy
8:58 AM 26.6 °F 21.2 °F 15.8 °F 64% 30.12 in 10.0 mi West 4.6 mph - N/A   Scattered Clouds
9:58 AM 33.8 °F 28.6 °F 15.8 °F 48% 30.20 in 10.0 mi NNW 5.8 mph - N/A   Scattered Clouds
10:58 AM 41.0 °F 35.8 °F 17.6 °F 39% 30.19 in 10.0 mi NNW 8.1 mph - N/A   Scattered Clouds
11:58 AM 42.8 °F 37.0 °F 19.4 °F 39% 30.18 in 10.0 mi WNW 10.4 mph - N/A   Scattered Clouds
12:58 PM 44.6 °F 37.4 °F 19.4 °F 37% 30.17 in 10.0 mi NW 16.1 mph 20.7 mph N/A   Scattered Clouds
1:58 PM 48.2 °F - 15.8 °F 27% 30.14 in 10.0 mi NW 11.5 mph 23.0 mph N/A   Scattered Clouds
2:58 PM 48.2 °F - 19.4 °F 32% 30.14 in 10.0 mi NW 11.5 mph 28.8 mph N/A   Scattered Clouds
3:58 PM 50.0 °F - 17.6 °F 28% 30.12 in 10.0 mi NW 15.0 mph 23.0 mph N/A   Partly Cloudy
4:58 PM 51.8 °F - 17.6 °F 26% 30.11 in 10.0 mi NNW 13.8 mph 26.5 mph N/A   Partly Cloudy
5:58 PM 51.1 °F - 17.4 °F 26% 30.10 in 10.0 mi NNW 13.8 mph - N/A   Scattered Clouds
6:58 PM 50.0 °F - 17.2 °F 27% 30.09 in 10.0 mi North 6.9 mph - N/A   Scattered Clouds
7:58 PM 46.9 °F - 16.7 °F 30% 30.11 in 10.0 mi NNE 3.5 mph - N/A   Scattered Clouds
8:58 PM 38.3 °F 34.8 °F 15.6 °F 40% 30.14 in 10.0 mi NNE 4.6 mph - N/A   Scattered Clouds
9:58 PM 32.4 °F 29.1 °F 14.5 °F 48% 30.15 in 10.0 mi South 3.5 mph - N/A   Partly Cloudy
10:58 PM 32.2 °F 25.8 °F 14.2 °F 48% 30.17 in 10.0 mi NE 6.9 mph - N/A   Partly Cloudy
11:58 PM 28.8 °F - 13.5 °F 53% 30.19 in 10.0 mi Calm Calm - N/A   Partly Cloudy